Le nostre stazioni meteo in Italia

Pubblicità
Il mio iltempo24.it
Pantelleria, Italia (16470): Temperatura & dewpoint: 14.10.2017 09:00:00 - 20.10.2017 09:00:00 (CEST)Pantelleria, Italia (16470): velocità del vento: 14.10.2017 09:00:00 - 20.10.2017 09:00:00 (CEST)Pantelleria, Italia (16470): direzione del vento: 14.10.2017 09:00:00 - 20.10.2017 09:00:00 (CEST)Pantelleria, Italia (16470): reduced air pressure: 14.10.2017 09:00:00 - 20.10.2017 09:00:00 (CEST)Pantelleria, Italia (16470): visibility: 14.10.2017 09:00:00 - 20.10.2017 09:00:00 (CEST)Pantelleria, Italia (16470): ore di luce: 14.10.2017 09:00:00 - 20.10.2017 09:00:00 (CEST)
Data & Tempo tt [°C] td [°C] ff [km/h] ff [kn] dd ppp [hPa] vv [km] sd [min]
20.10.2017 09:00:00 - - - - - - - -
20.10.2017 08:00:00 22,0 19,9 26 14 SE 1013,9 10 0
20.10.2017 07:00:00 21,8 19,0 31 17 SE 1013,9 10 0
20.10.2017 06:00:00 - - - - - - - -
20.10.2017 05:00:00 - - - - - - - -
20.10.2017 04:00:00 - - - - - - - -
20.10.2017 03:00:00 - - - - - - - -
20.10.2017 02:00:00 - - - - - - - -
20.10.2017 01:00:00 - - - - - - - -
20.10.2017 00:00:00 - - - - - - - -
19.10.2017 23:00:00 - - - - - - - -
19.10.2017 22:00:00 - - - - - - - -
19.10.2017 21:00:00 - - - - - - - -
19.10.2017 20:00:00 20,4 19,1 22 12 SE 1015,5 10 0
19.10.2017 19:00:00 20,6 19,1 16 9 SE 1015,5 10 36
19.10.2017 18:00:00 21,8 19,4 15 8 SE 1015,4 10 54
19.10.2017 17:00:00 22,0 17,8 15 8 SE 1016,0 10 60
19.10.2017 16:00:00 22,0 18,4 18 10 SE 1016,5 10 60
19.10.2017 15:00:00 23,0 18,3 21 11 S 1016,9 10 60
19.10.2017 14:00:00 23,6 18,0 21 11 S 1017,1 10 60
19.10.2017 13:00:00 23,4 17,6 18 10 S 1017,9 10 60
19.10.2017 12:00:00 22,8 18,5 21 11 S 1017,9 10 60
19.10.2017 11:00:00 22,0 18,6 21 11 S 1018,0 10 36
19.10.2017 10:00:00 20,0 18,7 16 9 S 1018,2 10 0
19.10.2017 09:00:00 19,2 17,9 21 11 S 1017,5 10 60
19.10.2017 08:00:00 18,8 18,0 18 10 SSE 1017,3 10 0
19.10.2017 07:00:00 18,6 18,3 16 9 SSE 1017,6 10 0
19.10.2017 06:00:00 - - - - - - - -
19.10.2017 05:00:00 - - - - - - - -
19.10.2017 04:00:00 - - - - - - - -
19.10.2017 03:00:00 - - - - - - - -
19.10.2017 02:00:00 - - - - - - - -
19.10.2017 01:00:00 - - - - - - - -
19.10.2017 00:00:00 - - - - - - - -
18.10.2017 23:00:00 - - - - - - - -
18.10.2017 22:00:00 - - - - - - - -
18.10.2017 21:00:00 - - - - - - - -
18.10.2017 20:00:00 18,0 17,2 15 8 S 1018,5 10 0
18.10.2017 19:00:00 19,0 17,3 15 8 S 1018,4 10 0
18.10.2017 18:00:00 20,6 17,0 16 9 S 1018,2 10 60
18.10.2017 17:00:00 21,6 17,2 18 10 S 1018,4 10 60
18.10.2017 16:00:00 21,8 17,4 21 11 S 1018,9 10 60
18.10.2017 15:00:00 22,2 17,6 18 10 S 1019,4 10 60
18.10.2017 14:00:00 22,8 17,7 21 11 S 1019,7 10 60
18.10.2017 13:00:00 22,8 17,7 18 10 S 1020,5 10 60
18.10.2017 12:00:00 22,6 17,7 16 9 S 1021,0 10 60
18.10.2017 11:00:00 21,8 17,4 16 9 S 1021,1 10 60
18.10.2017 10:00:00 21,4 17,6 13 7 S 1021,1 10 42
18.10.2017 09:00:00 19,6 17,4 11 6 S 1021,2 10 0
18.10.2017 08:00:00 17,8 16,3 8 4 S 1021,2 10 0
18.10.2017 07:00:00 17,4 15,7 4 2 SSO 1021,4 10 0
18.10.2017 06:00:00 - - - - - - - -
18.10.2017 05:00:00 - - - - - - - -
18.10.2017 04:00:00 - - - - - - - -
18.10.2017 03:00:00 - - - - - - - -
18.10.2017 02:00:00 - - - - - - - -
18.10.2017 01:00:00 - - - - - - - -
18.10.2017 00:00:00 - - - - - - - -
17.10.2017 23:00:00 - - - - - - - -
17.10.2017 22:00:00 - - - - - - - -
17.10.2017 21:00:00 - - - - - - - -
17.10.2017 20:00:00 18,6 17,3 8 4 SE 1023,2 10 0
17.10.2017 19:00:00 20,2 17,4 8 4 SE 1023,0 10 60
17.10.2017 18:00:00 20,6 17,8 13 7 SSO 1023,0 10 60
17.10.2017 17:00:00 22,0 16,7 9 5 S 1023,1 10 60
17.10.2017 16:00:00 22,0 15,8 9 5 SSO 1023,2 10 60
17.10.2017 15:00:00 21,8 17,6 9 5 S 1023,2 10 60
17.10.2017 14:00:00 22,6 17,7 8 4 SSO 1024,0 10 60
17.10.2017 13:00:00 22,6 17,7 11 6 SO 1024,9 10 60
17.10.2017 12:00:00 22,2 17,6 11 6 SO 1025,3 10 60
17.10.2017 11:00:00 21,2 17,2 13 7 S 1025,4 10 60
17.10.2017 10:00:00 21,0 17,6 9 5 SSO 1025,3 10 60
17.10.2017 09:00:00 18,8 17,0 4 2 SSO 1025,4 10 24
17.10.2017 08:00:00 17,0 15,4 5 3 SSO 1025,3 10 0
17.10.2017 07:00:00 16,8 15,2 5 3 SSO 1025,3 10 0
17.10.2017 06:00:00 - - - - - - - -
17.10.2017 05:00:00 - - - - - - - -
17.10.2017 04:00:00 - - - - - - - -
17.10.2017 03:00:00 - - - - - - - -
17.10.2017 02:00:00 - - - - - - - -
17.10.2017 01:00:00 - - - - - - - -
17.10.2017 00:00:00 - - - - - - - -
16.10.2017 23:00:00 - - - - - - - -
16.10.2017 22:00:00 - - - - - - - -
16.10.2017 21:00:00 - - - - - - - -
16.10.2017 20:00:00 18,6 18,0 4 2 E 1026,2 10 0
16.10.2017 19:00:00 19,2 18,4 5 3 NNE 1025,9 10 60
16.10.2017 18:00:00 20,4 18,9 4 2 NNO 1026,0 10 60
16.10.2017 17:00:00 21,2 18,6 8 4 NO 1025,9 10 60
16.10.2017 16:00:00 21,2 18,0 9 5 NNO 1026,3 10 60
16.10.2017 15:00:00 20,4 18,4 13 7 NO 1026,7 10 60
16.10.2017 14:00:00 21,2 18,0 13 7 O 1027,1 10 60
16.10.2017 13:00:00 20,4 18,0 11 6 NO 1027,3 10 60
16.10.2017 12:00:00 20,2 18,0 11 6 ONO 1027,3 10 60
16.10.2017 11:00:00 20,2 17,8 9 5 O 1027,3 10 60
16.10.2017 10:00:00 19,8 14,6 5 3 NO 1027,6 10 0
16.10.2017 09:00:00 18,2 13,1 0 0 N 1026,5 10 0
16.10.2017 08:00:00 17,8 12,7 2 1 SE 1026,5 10 0
16.10.2017 07:00:00 17,8 12,7 2 1 SSE 1027,5 10 0
16.10.2017 06:00:00 - - - - - - - -
16.10.2017 05:00:00 - - - - - - - -
16.10.2017 04:00:00 - - - - - - - -
16.10.2017 03:00:00 - - - - - - - -
16.10.2017 02:00:00 - - - - - - - -
16.10.2017 01:00:00 - - - - - - - -
16.10.2017 00:00:00 - - - - - - - -
15.10.2017 23:00:00 - - - - - - - -
15.10.2017 22:00:00 - - - - - - - -
15.10.2017 21:00:00 - - - - - - - -
15.10.2017 20:00:00 18,8 14,5 4 2 E 1027,5 10 0
15.10.2017 19:00:00 19,4 14,7 4 2 E 1027,4 10 0
15.10.2017 18:00:00 20,6 15,6 5 3 N 1027,3 10 60
15.10.2017 17:00:00 20,8 14,7 8 4 NE 1027,3 10 60
15.10.2017 16:00:00 21,0 15,8 9 5 NE 1027,3 10 60
15.10.2017 15:00:00 21,0 15,8 11 6 NNE 1027,3 10 60
15.10.2017 14:00:00 21,0 16,2 8 4 NE 1027,5 10 60
15.10.2017 13:00:00 21,4 15,7 9 5 NE 1028,2 10 60
15.10.2017 12:00:00 21,4 16,4 8 4 NE 1028,1 10 60
15.10.2017 11:00:00 21,0 15,5 5 3 NNE 1028,0 10 60
15.10.2017 10:00:00 20,0 14,6 4 2 NE 1027,9 10 30
15.10.2017 09:00:00 18,6 13,0 0 0 N 1027,7 10 0
15.10.2017 08:00:00 16,6 11,5 5 3 SE 1027,2 10 0
15.10.2017 07:00:00 17,4 12,3 4 2 ESE 1027,1 10 0
15.10.2017 06:00:00 - - - - - - - -
15.10.2017 05:00:00 - - - - - - - -
15.10.2017 04:00:00 - - - - - - - -
15.10.2017 03:00:00 - - - - - - - -
15.10.2017 02:00:00 - - - - - - - -
15.10.2017 01:00:00 - - - - - - - -
15.10.2017 00:00:00 - - - - - - - -
14.10.2017 23:00:00 - - - - - - - -
14.10.2017 22:00:00 - - - - - - - -
14.10.2017 21:00:00 - - - - - - - -
14.10.2017 20:00:00 19,2 14,5 8 4 NNE 1026,4 10 0
14.10.2017 19:00:00 19,4 14,7 9 5 N 1025,9 10 60
14.10.2017 18:00:00 20,0 13,9 9 5 NNE 1025,8 10 60
14.10.2017 17:00:00 20,0 13,9 9 5 NNE 1025,8 10 60
14.10.2017 16:00:00 20,2 14,5 11 6 NNE 1025,8 10 60
14.10.2017 15:00:00 20,2 15,4 13 7 NE 1026,0 10 60
14.10.2017 14:00:00 20,8 14,7 15 8 NE 1026,2 10 60
14.10.2017 13:00:00 20,6 14,5 18 10 NE 1026,2 10 60
14.10.2017 12:00:00 21,0 14,4 18 10 NE 1026,2 10 60
14.10.2017 11:00:00 20,6 14,9 16 9 NE 1026,1 10 60
14.10.2017 10:00:00 20,2 15,2 13 7 NNE 1026,0 10 54
14.10.2017 09:00:00 19,6 14,6 15 8 NNE 1025,5 10 0

tt = Temperatura
td = dewpoint
ff = velocità del vento
dd = direzione del vento
ppp = reduced air pressure
vv = visibility
sd = ore di luce

Stazioni seguenti

WeatherPro
AMSI
MeteoEarth